Location: Obersdorf
(47.4079°N, 10.2781°E)
Time: 13:29:48
(UTC+02:00)

Envisat - Pass Details

Date: 03 October 2021
Orbit: 764 x 766 km, 98.2° (Epoch: 20 October)

Event Time Altitude Azimuth Distance (km) Brightness Sun altitude
Rises 05:58:31 0° 19° (NNE) 3,242 6.7 -14.7°
Reaches altitude 10° 06:00:58 10° 27° (NNE) 2,311 6.0 -14.3°
Maximum altitude 06:05:47 41° 97° (E) 1,097 4.4 -13.5°
Drops below altitude 10° 06:10:33 10° 168° (SSE) 2,294 5.5 -12.7°
Sets 06:12:58 0° 175° (S) 3,216 6.2 -12.3°
